When you browse on this site, cookies collect data to enhance your experience and personalize the content and advertising you see.
Visit our Privacy Policy to learn more. By continuing to use the site, you agree to this use of cookies and data.
  • In United Kingdom
  • List of Countries
  • For 7 days
  • Water Temperature
  • Weather Map
  • Weather Widgets
  • user-avatar
    Login

    Hourly Weather Siva

    Today, 15 September, Sunday

    Time Temperature Precipitation Wind Pressure Humidity
    00:00 +25°C° 0 mm 4 mps 755 mmHg 64%
    01:00 +24°C° 0 mm 3 mps 755 mmHg 70%
    02:00 +22°C° 0 mm 3 mps 755 mmHg 77%
    03:00 +22°C° 0 mm 3 mps 755 mmHg 79%
    04:00 +21°C° 0 mm 2 mps 755 mmHg 80%
    05:00 +21°C° 0 mm 2 mps 755 mmHg 82%
    06:00 +23°C° 0 mm 2 mps 756 mmHg 78%
    07:00 +24°C° 0 mm 2 mps 756 mmHg 74%
    08:00 +25°C° 0 mm 3 mps 757 mmHg 68%
    09:00 +27°C° 0 mm 3 mps 756 mmHg 59%
    10:00 +28°C° 0 mm 4 mps 756 mmHg 50%
    11:00 +30°C° 0 mm 4 mps 756 mmHg 41%
    12:00 +33°C° 0 mm 4 mps 756 mmHg 37%
    13:00 +34°C° 0 mm 4 mps 755 mmHg 32%
    14:00 +35°C° 0 mm 4 mps 755 mmHg 29%
    15:00 +35°C° 0 mm 4 mps 755 mmHg 27%
    16:00 +35°C° 0 mm 4 mps 754 mmHg 25%
    17:00 +35°C° 0 mm 4 mps 754 mmHg 23%
    18:00 +34°C° 0 mm 4 mps 755 mmHg 25%
    19:00 +32°C° 0 mm 4 mps 755 mmHg 28%
    20:00 +29°C° 0 mm 4 mps 756 mmHg 30%
    21:00 +29°C° 0 mm 3 mps 755 mmHg 33%
    22:00 +28°C° 0 mm 3 mps 755 mmHg 36%
    23:00 +27°C° 0 mm 3 mps 755 mmHg 39%

    Tomorrow, 16 September, Monday

    Time Temperature Precipitation Wind Pressure Humidity
    00:00 +26°C° 0 mm 3 mps 755 mmHg 43%
    01:00 +25°C° 0 mm 3 mps 755 mmHg 47%
    02:00 +25°C° 0 mm 2 mps 756 mmHg 51%
    03:00 +24°C° 0 mm 2 mps 755 mmHg 53%
    04:00 +23°C° 0 mm 2 mps 755 mmHg 54%
    05:00 +23°C° 0 mm 2 mps 755 mmHg 56%
    06:00 +24°C° 0 mm 2 mps 756 mmHg 54%
    07:00 +25°C° 0 mm 1 mps 756 mmHg 51%
    08:00 +26°C° 0 mm 1 mps 756 mmHg 49%
    09:00 +28°C° 0 mm 1 mps 756 mmHg 43%
    10:00 +28°C° 0 mm 0 mps 756 mmHg 37%
    11:00 +29°C° 0 mm 0 mps 756 mmHg 31%
    12:00 +33°C° 0 mm 1 mps 756 mmHg 27%
    13:00 +34°C° 0 mm 1 mps 755 mmHg 24%
    14:00 +36°C° 0 mm 2 mps 755 mmHg 21%
    15:00 +36°C° 0 mm 2 mps 754 mmHg 20%
    16:00 +36°C° 0 mm 3 mps 754 mmHg 19%
    17:00 +36°C° 0 mm 3 mps 754 mmHg 18%
    18:00 +35°C° 0 mm 3 mps 754 mmHg 20%
    19:00 +33°C° 0 mm 3 mps 755 mmHg 23%
    20:00 +30°C° 0 mm 3 mps 755 mmHg 25%
    21:00 +29°C° 0 mm 3 mps 755 mmHg 27%
    22:00 +29°C° 0 mm 3 mps 755 mmHg 30%
    23:00 +28°C° 0 mm 4 mps 756 mmHg 33%

    Day after tomorrow, 17 September, Tuesday

    Time Temperature Precipitation Wind Pressure Humidity
    00:00 +27°C° 0 mm 4 mps 756 mmHg 38%
    01:00 +26°C° 0 mm 4 mps 756 mmHg 44%
    02:00 +25°C° 0 mm 4 mps 755 mmHg 49%
    03:00 +24°C° 0 mm 3 mps 756 mmHg 54%
    04:00 +24°C° 0 mm 3 mps 756 mmHg 59%
    05:00 +22°C° 0 mm 3 mps 756 mmHg 64%
    06:00 +24°C° 0 mm 3 mps 756 mmHg 62%
    07:00 +25°C° 0 mm 2 mps 757 mmHg 60%
    08:00 +25°C° 0 mm 2 mps 757 mmHg 58%
    09:00 +27°C° 0 mm 2 mps 757 mmHg 50%
    10:00 +29°C° 0 mm 2 mps 757 mmHg 41%
    11:00 +31°C° 0 mm 1 mps 757 mmHg 33%
    12:00 +32°C° 0 mm 2 mps 756 mmHg 29%
    13:00 +35°C° 0 mm 2 mps 756 mmHg 26%
    14:00 +36°C° 0 mm 2 mps 755 mmHg 22%
    15:00 +36°C° 0 mm 2 mps 755 mmHg 21%
    16:00 +36°C° 0 mm 2 mps 754 mmHg 21%
    17:00 +36°C° 0 mm 3 mps 754 mmHg 20%
    18:00 +35°C° 0 mm 3 mps 754 mmHg 22%
    19:00 +33°C° 0 mm 3 mps 755 mmHg 24%
    20:00 +30°C° 0 mm 3 mps 755 mmHg 27%
    21:00 +30°C° 0 mm 3 mps 755 mmHg 30%
    22:00 +29°C° 0 mm 4 mps 756 mmHg 33%
    23:00 +28°C° 0 mm 4 mps 756 mmHg 37%

    18 September, Wednesday

    Time Temperature Precipitation Wind Pressure Humidity
    00:00 +27°C° 0 mm 4 mps 756 mmHg 43%
    01:00 +26°C° 0 mm 4 mps 756 mmHg 50%
    02:00 +25°C° 0 mm 4 mps 756 mmHg 57%
    03:00 +23°C° 0 mm 4 mps 756 mmHg 59%
    04:00 +23°C° 0 mm 4 mps 756 mmHg 61%
    05:00 +22°C° 0 mm 3 mps 756 mmHg 64%
    06:00 +24°C° 0 mm 3 mps 756 mmHg 61%
    07:00 +25°C° 0 mm 3 mps 757 mmHg 58%
    08:00 +25°C° 0 mm 3 mps 757 mmHg 55%
    09:00 +27°C° 0 mm 2 mps 757 mmHg 48%
    10:00 +29°C° 0 mm 2 mps 757 mmHg 41%
    11:00 +31°C° 0 mm 1 mps 757 mmHg 33%
    12:00 +34°C° 0 mm 2 mps 756 mmHg 29%
    13:00 +35°C° 0 mm 2 mps 756 mmHg 25%
    14:00 +37°C° 0 mm 2 mps 755 mmHg 21%
    15:00 +37°C° 0 mm 3 mps 755 mmHg 20%
    16:00 +37°C° 0 mm 4 mps 755 mmHg 19%
    17:00 +37°C° 0 mm 4 mps 755 mmHg 19%
    18:00 +35°C° 0 mm 4 mps 755 mmHg 21%
    19:00 +33°C° 0 mm 3 mps 755 mmHg 23%
    20:00 +30°C° 0 mm 3 mps 756 mmHg 26%
    21:00 +29°C° 0 mm 3 mps 756 mmHg 32%
    22:00 +28°C° 0 mm 4 mps 756 mmHg 39%
    23:00 +26°C° 0 mm 4 mps 756 mmHg 45%

    19 September, Thursday

    Time Temperature Precipitation Wind Pressure Humidity
    00:00 +26°C° 0 mm 4 mps 756 mmHg 49%
    01:00 +25°C° 0 mm 3 mps 756 mmHg 53%
    02:00 +24°C° 0 mm 3 mps 756 mmHg 57%
    03:00 +24°C° 0 mm 3 mps 756 mmHg 57%
    04:00 +22°C° 0 mm 3 mps 756 mmHg 58%
    05:00 +23°C° 0 mm 2 mps 756 mmHg 59%
    06:00 +24°C° 0 mm 2 mps 756 mmHg 55%
    07:00 +24°C° 0 mm 2 mps 756 mmHg 51%
    08:00 +25°C° 0 mm 2 mps 757 mmHg 48%
    09:00 +27°C° 0 mm 1 mps 757 mmHg 41%
    10:00 +29°C° 0 mm 1 mps 757 mmHg 35%
    11:00 +31°C° 0 mm 1 mps 757 mmHg 28%
    12:00 +33°C° 0 mm 1 mps 757 mmHg 25%
    13:00 +35°C° 0 mm 2 mps 756 mmHg 22%
    14:00 +36°C° 0 mm 2 mps 755 mmHg 20%
    15:00 +36°C° 0 mm 3 mps 755 mmHg 19%
    16:00 +37°C° 0 mm 3 mps 755 mmHg 18%
    17:00 +37°C° 0 mm 3 mps 755 mmHg 18%
    18:00 +35°C° 0 mm 3 mps 755 mmHg 20%
    19:00 +33°C° 0 mm 3 mps 755 mmHg 22%
    20:00 +30°C° 0 mm 3 mps 755 mmHg 25%
    21:00 +29°C° 0 mm 3 mps 756 mmHg 30%
    22:00 +28°C° 0 mm 4 mps 756 mmHg 34%
    23:00 +27°C° 0 mm 4 mps 756 mmHg 39%

    20 September, Friday

    Time Temperature Precipitation Wind Pressure Humidity
    00:00 +27°C° 0 mm 4 mps 756 mmHg 44%
    01:00 +26°C° 0 mm 4 mps 756 mmHg 49%
    02:00 +25°C° 0 mm 3 mps 756 mmHg 54%
    03:00 +24°C° 0 mm 3 mps 756 mmHg 56%
    04:00 +24°C° 0 mm 2 mps 756 mmHg 58%
    05:00 +23°C° 0 mm 2 mps 755 mmHg 60%
    06:00 +24°C° 0 mm 2 mps 756 mmHg 58%
    07:00 +25°C° 0 mm 2 mps 756 mmHg 55%
    08:00 +25°C° 0 mm 2 mps 756 mmHg 52%
    09:00 +27°C° 0 mm 1 mps 756 mmHg 46%
    10:00 +29°C° 0 mm 1 mps 756 mmHg 39%
    11:00 +31°C° 0 mm 1 mps 756 mmHg 33%
    12:00 +34°C° 0 mm 2 mps 756 mmHg 29%
    13:00 +35°C° 0 mm 3 mps 755 mmHg 25%
    14:00 +37°C° 0 mm 4 mps 754 mmHg 22%
    15:00 +37°C° 0 mm 4 mps 754 mmHg 21%
    16:00 +37°C° 0 mm 5 mps 754 mmHg 20%
    17:00 +37°C° 0 mm 5 mps 754 mmHg 20%
    18:00 +35°C° 0 mm 4 mps 754 mmHg 22%
    19:00 +34°C° 0 mm 4 mps 755 mmHg 25%
    20:00 +32°C° 0 mm 4 mps 755 mmHg 27%
    21:00 +29°C° 0 mm 4 mps 755 mmHg 34%
    22:00 +28°C° 0 mm 4 mps 755 mmHg 41%
    23:00 +27°C° 0 mm 4 mps 756 mmHg 48%
    Show more